Weather History for Puebla, Mexico

Change the Weather History Date:

Friday, October 19, 2012

  Actual Average Record
Temperature  
Mean Temperature 64 °F -  
Max Temperature 78 °F 69 °F 78 °F (2007)
Min Temperature 50 °F 48 °F 41 °F (1997)
Degree Days  
Heating Degree Days 1    
Growing Degree Days 14 (Base 50)    
Moisture  
Dew Point 49 °F    
Average Humidity 57    
Maximum Humidity 92    
Minimum Humidity 21    
Precipitation  
Precipitation 0.00 in - - ()
Sea Level Pressure  
Sea Level Pressure 30.12 in    
Wind  
Wind Speed 4 mph ()    
Max Wind Speed 13 mph    
Max Gust Speed -    
Visibility 7.7 miles    
Events Rain    
Averages and records for this station are not official NWS values.
T = Trace of Precipitation, MM = Missing Value Source: Averaged Metar Reports

Daily Weather History Graph

Daily Weather History Graph

Search for Another Location

Airport:

Trip Planner

Search our weather history database for the weather conditions in past years. The results will help you decide how hot, cold, wet, or windy it might be!

Date:

Astronomy

Oct. 19, 2012 Rise Set
Actual Time 7:29 AM CDT 7:07 PM CDT
Civil Twilight 7:06 AM CDT 7:29 PM CDT
Nautical Twilight 6:41 AM CDT 7:55 PM CDT
Astronomical Twilight 6:15 AM CDT 8:20 PM CDT
Moon 11:46 AM CDT (10/19) 11:12 PM CDT (10/19)
Length of Visible Light 12h 22m
Length of Day
11h 38m
Waxing Crescent, 24% of the Moon is Illuminated
Oct 19
Waxing Crescent
Oct 21
First Quarter
Oct 29
Full
Nov 6
Last Quarter
Nov 13
New

Hourly Weather History & Observations

Time (CDT) Temp. Dew Point Humidity Pressure Visibility Wind Dir Wind Speed Gust Speed Precip Events Conditions
12:45 AM 59 °F 56 °F 85% 29.75 in 3 mi Calm Calm - - Rain Light Rain
3:45 AM 56 °F 53 °F 86% 29.79 in 3 mi Calm Calm - -  
6:40 AM 48.2 °F 44.6 °F 87% 30.28 in 8.0 mi NNW 6.9 mph - N/A   Clear
6:45 AM 53 °F 51 °F 92% 29.85 in 3 mi Calm Calm - -  
7:44 AM 50.0 °F 46.4 °F 87% 30.29 in 6.0 mi North 6.9 mph - N/A   Partly Cloudy
8:41 AM 53.6 °F 48.2 °F 82% 30.30 in 8.0 mi NW 4.6 mph - N/A   Partly Cloudy
9:45 AM 64.4 °F 50.0 °F 59% 30.31 in 8.0 mi NNW 9.2 mph - N/A   Clear
9:50 AM 62 °F 51 °F 57% 29.91 in 3 mi WNW 2.2 mph - -   Haze
10:44 AM 69.8 °F 48.2 °F 46% 30.32 in 8.0 mi North 12.7 mph - N/A   Clear
11:45 AM 73.4 °F 46.4 °F 38% 30.31 in 8.0 mi North 12.7 mph - N/A   Clear
12:46 PM 75.2 °F 44.6 °F 34% 30.29 in 9.0 mi NNE 11.5 mph - N/A   Partly Cloudy
12:50 PM 76 °F 48 °F 26% 29.85 in 6 mi South 2.2 mph - -   Haze
1:44 PM 77.0 °F 44.6 °F 32% 30.26 in 10.0 mi North 5.8 mph - N/A   Mostly Cloudy
2:41 PM 77.0 °F 44.6 °F 32% 30.23 in 10.0 mi Calm Calm - N/A   Mostly Cloudy
3:40 PM 75 °F 43 °F 21% 29.70 in 9 mi ESE 2.2 mph - -   Haze
3:43 PM 77.0 °F 44.6 °F 32% 30.21 in 10.0 mi NE 12.7 mph - N/A   Mostly Cloudy
4:42 PM 73.4 °F 51.8 °F 47% 30.21 in 10.0 mi South 4.6 mph - N/A   Mostly Cloudy
5:41 PM 71.6 °F 51.8 °F 50% 30.21 in 10.0 mi SSE 6.9 mph - N/A   Mostly Cloudy
6:40 PM 69 °F 46 °F 32% 29.65 in 12 mi ESE 2.2 mph - -   Mostly Cloudy
6:45 PM 68.0 °F 53.6 °F 60% 30.23 in 10.0 mi WSW 4.6 mph - N/A   Mostly Cloudy
7:44 PM 64.4 °F 53.6 °F 68% 30.28 in 10.0 mi SE 5.8 mph - N/A   Scattered Clouds
8:41 PM 62.6 °F 50.0 °F 63% 30.29 in 10.0 mi Calm Calm - N/A   Scattered Clouds
9:45 PM 60.8 °F 50.0 °F 68% 30.32 in 8.0 mi North 4.6 mph - N/A   Partly Cloudy
9:50 PM 63 °F 50 °F 52% 29.73 in 3 mi Calm Calm - -   Scattered Clouds
10:42 PM 57.2 °F 50.0 °F 77% 30.33 in 8.0 mi NNW 6.9 mph - N/A   Partly Cloudy